WORLDVIEW-2 (WV-2)

Last updated on Tue Oct 15 2024 00:02:24 GMT+0000 (Coordinated Universal Time)

1 35946U 09055A 24288.55460242 .00000651 00000+0 23439-3 0 9993 2 35946 98.4870 359.5389 0003216 227.9037 132.1877 14.36954864787921
UTC large
Height (km)
Speed (km/s)
/
Latitude / Longitude
Inclination (degrees)
Orbital Period (minutes)
Azimuth
Elevation
Range (km)
Doppler Factor

Next 0 passes for location: London (51.5072 / 0.1276)

Sorry there are no passes over London.